User: anonymous   Login
Location: Unspecified
(0.0000°N, 0.0000°E)
Time: 08:11:18
(UTC+00:00)
Language:

USA 67 - Orbit

View from above orbital plane
View from above orbital plane
View from above satellite
View from above satellite

Ground track
Ground track

The orbit data is extracted from the following two-line orbital elements,

1 20963U 90097B   18310.57569239 0.00000000  00000-0  00000-0 0    07
2 20963  16.5262 358.7465 0014581 224.4363 135.4748  0.98577903    05
Epoch (UTC): 06 November 2018 13:48:59
Eccentricity: 0.0014581
inclination: 16.5262°
perigee height: 36205 km
apogee height: 36330 km
right ascension of ascending node: 358.7465°
argument of perigee: 224.4363°
revolutions per day: 0.98577903
mean anomaly at epoch: 135.4748°
orbit number at epoch: 0

The dashed part of the orbit path shows where the satellite is in the earth's shadow,  

DLR